[[{"header":{"parameterUnit":"m.s-1","parameterCategory":1,"la1":30.2991,"la2":30.254,"lo1":-89.0895,"lo2":-89.0444,"dy":0.0017,"dx":0.0017,"nx":28,"ny":28,"refTime":"2025-03-28T03:00:00:Z","depth":0,"parameterNumber":2,"parameterNumberName":"U-component_of_WINDS"},"data":[0,0,0,0,0,0,0,0,0,0,0,0,0,0,0,0,0,0,0,0,0,0,0,0,0,0,0,0,0,0,0,0,0,0,0,0,0,0,0,0,0,0,0,0,0,0,0,0,0,0,0,0,0,0,0,0,0,0,-4.5564,-4.5564,0,-4.5581,-4.5581,-4.5581,-4.5487,-4.5484,-4.5481,-4.5479,-4.5496,-4.5499,-4.5502,0,0,0,0,0,0,0,0,0,0,0,0,0,-4.5451,-4.5453,-4.5564,-4.5564,-4.5564,-4.5581,-4.5581,-4.5581,-4.5487,-4.5484,-4.548,-4.5477,-4.5495,-4.5498,-4.5502,0,0,0,0,0,0,0,0,0,0,0,0,0,-4.5487,-4.5454,-4.5564,-4.5519,-4.5515,-4.558,-4.5581,-4.5581,-4.5488,-4.5484,-4.548,-4.5476,-4.5494,-4.5498,-4.5502,-4.5611,0,0,-4.5516,-4.5518,0,0,0,0,0,0,0,0,-4.5485,-4.5491,-4.5526,-4.5523,-4.5518,-4.5527,-4.5547,-4.5591,-4.5489,-4.5498,-4.5479,-4.5474,-4.551,-4.5512,-4.5524,-4.5611,-4.5612,-4.5516,-4.5519,-4.5521,-4.5522,0,0,0,0,0,0,0,-4.5483,-4.549,-4.557,-4.5526,-4.5522,-4.5499,-4.5499,-4.5555,-4.5526,-4.5497,-4.549,-4.5494,-4.5507,-4.552,-4.5524,-4.5612,-4.5516,-4.552,-4.5523,-4.5525,-4.579,-4.5794,0,0,0,0,0,0,-4.5486,-4.5489,-4.557,-4.5571,-4.5491,-4.5504,-4.5505,-4.5529,-4.5525,-4.5521,-4.5497,-4.5489,-4.5515,-4.5519,-4.5524,-4.5651,-4.5521,-4.5525,-4.5528,-4.5785,-4.5791,-4.5796,0,0,0,0,0,0,-4.5484,-4.5494,-4.5569,-4.5528,-4.5536,-4.551,-4.5538,-4.5531,-4.5544,-4.5525,-4.552,-4.5516,-4.5512,-4.5518,-4.559,-4.565,-4.5527,-4.5531,-4.578,-4.5787,-4.5793,-4.5905,0,0,0,0,0,0,-4.5481,-4.5494,-4.5535,-4.553,-4.5538,-4.5635,-4.5541,-4.5534,-4.5552,-4.5542,-4.5542,-4.5538,-4.5509,-4.5584,-4.5594,-4.5654,-4.5535,-4.5775,-4.5783,-4.5791,-4.5896,-4.5915,-4.5931,0,0,0,0,0,-4.5478,-4.5565,-4.5537,-4.5548,-4.5589,-4.5638,-4.5643,-4.5608,-4.5558,-4.5598,-4.5586,-4.5538,-4.5642,-4.5592,-4.5603,-4.5665,-4.5771,-4.5781,-4.579,-4.5888,-4.5911,-4.593,0,0,0,0,0,0,-4.5578,-4.5564,-4.5532,-4.5621,-4.5632,-4.5622,-4.5672,-4.5634,-4.5658,-4.5648,-4.5603,-4.5604,-4.5684,-4.5682,-4.5626,-4.577,-4.5698,-4.571,-4.5768,-4.579,-4.5807,-4.5805,-4.5538,0,0,0,0,0,-4.5611,-4.5652,-4.5638,-4.5717,-4.5724,-4.5698,-4.5718,-4.5691,-4.5699,-4.5703,-4.5696,-4.5707,-4.5742,-4.5766,-4.5797,-4.5896,-4.5894,-4.5944,-4.5961,-4.5976,-4.5987,-4.6039,-4.6061,-4.5828,-4.5828,-4.5828,0,0,-4.5678,-4.5675,-4.5704,-4.5738,-4.5742,-4.5786,-4.5702,-4.5752,-4.5784,-4.5711,-4.5778,-4.5774,-4.5783,-4.5869,-4.5906,-4.5869,-4.6051,-4.5988,-4.6,-4.6003,-4.6051,-4.6073,-4.6093,-4.5835,-4.5833,-4.5832,0,0,-4.5823,-4.5826,-4.5892,-4.5899,-4.5908,-4.589,-4.5906,-4.5903,-4.5898,-4.5965,-4.5911,-4.5949,-4.601,-4.6019,-4.6031,-4.6182,-4.6138,-4.6193,-4.6284,-4.6335,-4.6353,-4.6369,-4.6423,-4.6442,-4.6205,-4.6205,-4.6205,0,-4.5905,-4.5969,-4.5932,-4.5986,-4.6002,-4.5938,-4.6006,-4.6014,-4.6033,-4.6046,-4.6004,-4.6081,-4.6082,-4.6169,-4.6206,-4.6219,-4.6236,-4.6192,-4.6354,-4.637,-4.6384,-4.6434,-4.6454,-4.6211,-4.6211,-4.621,-4.6209,0,-4.607,-4.6116,-4.6169,-4.6189,-4.6211,-4.6272,-4.6243,-4.6271,-4.6242,-4.6229,-4.6298,-4.6298,-4.6328,-4.6347,-4.6319,-4.6431,-4.6408,-4.6362,-4.6287,-4.6413,-4.646,-4.6479,-4.6221,-4.6219,-4.6217,-4.6215,0,0,-4.6277,-4.6276,-4.6296,-4.6305,-4.6311,-4.6345,-4.6403,-4.6433,-4.6458,-4.6473,-4.6521,-4.6575,-4.6532,-4.6547,-4.6519,-4.6565,-4.6684,-4.6512,-4.6512,-4.6543,-4.6806,-4.6841,-4.6863,-4.6656,-4.6659,-4.6662,-4.6805,0,-4.6418,-4.6517,-4.6485,-4.6585,-4.6627,-4.6568,-4.6619,-4.6628,-4.6618,-4.6652,-4.6641,-4.668,-4.662,-4.6629,-4.6671,-4.666,-4.6736,-4.665,-4.6699,-4.6701,-4.6697,-4.6888,-4.6924,-4.7059,-4.6823,-4.6826,-4.6829,0,-4.6595,-4.6619,-4.6723,-4.6722,-4.6739,-4.6785,-4.681,-4.6844,-4.6853,-4.6843,-4.686,-4.6824,-4.6881,-4.6809,-4.6887,-4.6829,-4.6848,-4.6846,-4.685,-4.6852,-4.6771,-4.6894,-4.7101,-4.7121,-4.6857,-4.6855,-4.6853,0,-4.6735,-4.6792,-4.6862,-4.6871,-4.6873,-4.6906,-4.6909,-4.6914,-4.6935,-4.6957,-4.697,-4.6999,-4.7015,-4.7039,-4.7011,-4.6961,-4.7094,-4.7019,-4.7086,-4.7087,-4.7115,-4.7114,-4.7327,-4.713,-4.713,-4.7129,-4.7129,0,-4.6895,-4.6961,-4.6925,-4.6967,-4.704,-4.7004,-4.7076,-4.7072,-4.7078,-4.7119,-4.7071,-4.7111,-4.7073,-4.7109,-4.7089,-4.7156,-4.7164,-4.7157,-4.715,-4.7161,-4.7161,-4.7171,-4.716,-4.7135,-4.7133,-4.7132,-4.7131,0,-4.7062,-4.704,-4.7112,-4.7108,-4.7109,-4.7163,-4.7159,-4.7199,-4.7186,-4.7239,-4.7249,-4.7229,-4.7269,-4.7245,-4.7286,-4.7272,-4.7361,-4.7342,-4.7357,-4.7352,-4.742,-4.7414,-4.7646,-4.7674,-4.746,-4.7462,-4.7464,0,-4.7164,-4.7214,-4.7216,-4.724,-4.7245,-4.7285,-4.7306,-4.7273,-4.7297,-4.7312,-4.735,-4.7387,-4.7414,-4.7482,-4.7471,-4.7502,-4.7483,-4.7563,-4.7487,-4.7496,-4.7483,-4.748,-4.7484,-4.7577,-4.758,-4.7582,-4.7583,0,-4.7349,-4.7336,-4.7368,-4.7397,-4.7423,-4.7444,-4.7461,-4.7484,-4.7451,-4.7481,-4.7522,-4.7543,-4.7586,-4.7622,-4.765,-4.7652,-4.7613,-4.7608,-4.7624,-4.7634,-4.7641,-4.7638,-4.7397,-4.7602,-4.76,-4.7599,-4.7598,-4.7597,-4.7486,-4.7527,-4.7535,-4.7572,-4.7582,-4.76,-4.7637,-4.7629,-4.7663,-4.7695,-4.7674,-4.7722,-4.7732,-4.7764,-4.7772,-4.781,-4.7777,-4.7802,-4.7808,-4.7815,-4.7824,-4.7637,-4.7815,-4.7814,-4.7813,-4.7813,-4.7813,0,-4.7667,-4.7669,-4.7704,-4.773,-4.776,-4.7722,-4.7739,-4.7766,-4.7809,-4.7822,-4.785,-4.7898,-4.7934,-4.7927,-4.7959,-4.7991,-4.7974,-4.8,-4.7997,-4.7998,-4.7851,-4.7832,-4.8014,-4.8014,-4.8014,-4.8014,-4.8014,-4.8014,-4.7764,-4.7832,-4.7821,-4.7894,-4.7896,-4.7943,-4.7956,-4.7972,-4.7982,-4.8037,-4.8067,-4.8063,-4.8067,-4.81,-4.8132,-4.8128,-4.8142,-4.8176,-4.8166,-4.8028,-4.8008,-4.7989,-4.7972,-4.8179,-4.818,-4.831,-4.8311,-4.8312]},{"header":{"parameterUnit":"m.s-1","parameterCategory":1,"la1":30.2991,"la2":30.254,"lo1":-89.0895,"lo2":-89.0444,"dy":0.0017,"dx":0.0017,"nx":28,"ny":28,"refTime":"2025-03-28T03:00:00:Z","depth":0,"parameterNumber":3,"parameterNumberName":"V-component_of_WINDS"},"data":[0,0,0,0,0,0,0,0,0,0,0,0,0,0,0,0,0,0,0,0,0,0,0,0,0,0,0,0,0,0,0,0,0,0,0,0,0,0,0,0,0,0,0,0,0,0,0,0,0,0,0,0,0,0,0,0,0,0,0.3541,0.3541,0,0.3558,0.3558,0.3559,0.3582,0.3582,0.3583,0.3583,0.36,0.36,0.36,0,0,0,0,0,0,0,0,0,0,0,0,0,0.3528,0.3528,0.3541,0.3541,0.3541,0.3558,0.3558,0.3559,0.3582,0.3582,0.3583,0.3583,0.36,0.36,0.36,0,0,0,0,0,0,0,0,0,0,0,0,0,0.3538,0.3528,0.3541,0.3555,0.3556,0.3558,0.3558,0.3559,0.3582,0.3582,0.3583,0.3583,0.36,0.36,0.36,0.359,0,0,0.3601,0.3601,0,0,0,0,0,0,0,0,0.3538,0.3539,0.3552,0.3554,0.3555,0.3568,0.356,0.3569,0.3581,0.3572,0.3583,0.3584,0.3589,0.359,0.3592,0.3591,0.3592,0.3601,0.3601,0.3601,0.3601,0,0,0,0,0,0,0,0.3537,0.3538,0.3548,0.3553,0.3554,0.3561,0.3563,0.3562,0.3577,0.3573,0.3575,0.3576,0.359,0.3592,0.3593,0.3592,0.3601,0.3601,0.3601,0.3601,0.3585,0.3585,0,0,0,0,0,0,0.3534,0.3537,0.3547,0.3548,0.3548,0.356,0.3563,0.3564,0.3577,0.358,0.3576,0.3577,0.3592,0.3593,0.3594,0.3584,0.3601,0.3601,0.3601,0.3586,0.3585,0.3585,0,0,0,0,0,0,0.3534,0.3535,0.3546,0.3543,0.3545,0.356,0.3561,0.3564,0.3566,0.3579,0.3582,0.3575,0.3592,0.3593,0.3591,0.3585,0.3601,0.3601,0.3586,0.3586,0.3585,0.3563,0,0,0,0,0,0,0.3533,0.3534,0.353,0.3543,0.3545,0.3543,0.356,0.3564,0.3566,0.3568,0.3579,0.3582,0.3593,0.3591,0.3591,0.3585,0.3602,0.3587,0.3586,0.3585,0.3564,0.3562,0.3559,0,0,0,0,0,0.3533,0.3523,0.353,0.3531,0.354,0.3543,0.3544,0.3557,0.3565,0.3562,0.3571,0.3582,0.3585,0.3591,0.3591,0.3585,0.3588,0.3586,0.3585,0.3566,0.3562,0.3559,0,0,0,0,0,0,0.3508,0.3524,0.3533,0.3526,0.3533,0.3547,0.3542,0.3552,0.3557,0.3558,0.3574,0.3576,0.3573,0.3579,0.3584,0.3577,0.3588,0.3587,0.3573,0.357,0.3567,0.3566,0.3602,0,0,0,0,0,0.3501,0.3502,0.3517,0.351,0.3513,0.3527,0.3529,0.3538,0.3546,0.3548,0.3557,0.3564,0.3568,0.3569,0.3572,0.3566,0.3569,0.3562,0.3559,0.3557,0.3556,0.3555,0.3552,0.3581,0.3581,0.3581,0,0,0.3488,0.3498,0.3497,0.3505,0.3511,0.3512,0.3529,0.3529,0.353,0.3548,0.3547,0.3555,0.3564,0.356,0.3558,0.3564,0.3549,0.3556,0.3554,0.3554,0.3553,0.3551,0.3548,0.358,0.358,0.358,0,0,0.3465,0.3472,0.3468,0.3474,0.3484,0.3494,0.3493,0.3506,0.3512,0.3511,0.3526,0.3528,0.3532,0.3539,0.3542,0.3525,0.3535,0.3525,0.3512,0.351,0.3508,0.3506,0.3501,0.3499,0.3524,0.3524,0.3524,0,0.3448,0.345,0.3464,0.3464,0.3468,0.3486,0.3482,0.3488,0.3498,0.3501,0.3508,0.3515,0.3522,0.3521,0.3517,0.3519,0.352,0.3524,0.3507,0.3506,0.3504,0.3499,0.3497,0.3523,0.3523,0.3523,0.3523,0,0.3428,0.343,0.3425,0.3436,0.3439,0.3437,0.3452,0.3454,0.3464,0.3474,0.3474,0.3484,0.349,0.3491,0.35,0.3492,0.3495,0.3504,0.3516,0.35,0.3496,0.3494,0.3521,0.3522,0.3522,0.3522,0,0,0.3388,0.3409,0.3407,0.3413,0.3427,0.3428,0.3428,0.3435,0.3437,0.3444,0.3445,0.345,0.3459,0.3464,0.3474,0.3473,0.346,0.3482,0.3483,0.3479,0.3454,0.3447,0.3445,0.3468,0.3467,0.3467,0.3453,0,0.3368,0.3369,0.3383,0.338,0.3382,0.3401,0.3401,0.3409,0.3419,0.3423,0.3433,0.3437,0.3448,0.3451,0.3451,0.3462,0.3455,0.3463,0.3469,0.3469,0.3467,0.3442,0.3435,0.3421,0.3452,0.3451,0.3451,0,0.3344,0.3352,0.3349,0.3365,0.3366,0.3366,0.3375,0.3378,0.3389,0.3397,0.3403,0.3415,0.3417,0.3428,0.3432,0.3436,0.344,0.3446,0.3446,0.3447,0.3459,0.3444,0.3417,0.3415,0.3449,0.3449,0.3449,0,0.3317,0.3326,0.3326,0.3331,0.3349,0.3349,0.3356,0.3368,0.3372,0.338,0.3383,0.3391,0.3396,0.3402,0.3416,0.3423,0.3419,0.3431,0.3425,0.3425,0.3423,0.3423,0.3398,0.3425,0.3425,0.3425,0.3425,0,0.3293,0.3291,0.3315,0.3314,0.3313,0.3331,0.3329,0.3338,0.3349,0.3352,0.3368,0.3371,0.3389,0.3394,0.3406,0.3408,0.3409,0.3416,0.3419,0.3414,0.3414,0.3417,0.3419,0.3424,0.3424,0.3425,0.3425,0,0.3262,0.3277,0.3279,0.3297,0.3302,0.33,0.3316,0.3317,0.3328,0.3332,0.3334,0.3351,0.3358,0.3374,0.3384,0.3392,0.3391,0.3396,0.3388,0.339,0.3384,0.3384,0.336,0.3358,0.3385,0.3385,0.3385,0,0.3246,0.3245,0.3264,0.3267,0.3275,0.3279,0.3285,0.3302,0.3307,0.3321,0.3321,0.3329,0.3337,0.3347,0.3361,0.3369,0.3375,0.3366,0.3377,0.3373,0.3377,0.3377,0.3377,0.3364,0.3364,0.3363,0.3363,0,0.3217,0.3225,0.3232,0.3242,0.3247,0.3256,0.3265,0.3267,0.3287,0.3292,0.33,0.3306,0.3318,0.3326,0.3337,0.3346,0.3358,0.336,0.3359,0.3355,0.335,0.3354,0.3382,0.336,0.336,0.3361,0.3361,0.3361,0.3193,0.3194,0.3208,0.3216,0.3225,0.3234,0.3237,0.3249,0.3256,0.3267,0.3278,0.3285,0.3298,0.3315,0.3323,0.3329,0.3335,0.3334,0.3333,0.3333,0.3332,0.3349,0.3331,0.3331,0.3331,0.3331,0.3331,0,0.3166,0.3176,0.3183,0.3196,0.3203,0.3215,0.3226,0.3231,0.3237,0.3249,0.3257,0.3266,0.3275,0.3291,0.3301,0.3304,0.331,0.3306,0.3306,0.3308,0.3325,0.3325,0.3301,0.3301,0.3301,0.3301,0.3301,0.3301,0.3152,0.3155,0.3165,0.3173,0.3184,0.3191,0.3197,0.3206,0.3216,0.3226,0.3234,0.3245,0.3258,0.327,0.328,0.3284,0.3287,0.3282,0.3288,0.3304,0.3307,0.3309,0.3309,0.3282,0.3282,0.3271,0.3271,0.3271]}]]